Location: Demre
(36.2444°N, 29.9850°E)
Time: 04:39:05
(UTC+00:00)

NOSS 2-3 (C) - Pass Details

Date: 11 March 2026
Orbit: 453 x 1720 km, 63.3° (Epoch: 21 April)

Event Time Altitude Azimuth Distance (km) Brightness Sun altitude
Rises 17:56:52 0° 215° (SW) 2,625 7.1 -23.5°
Reaches altitude 10° 17:59:07 10° 218° (SW) 1,658 6.0 -23.9°
Enters shadow 18:01:11 32° 226° (SW) 824 4.4 -24.3°
